Hourly Data Report for March 21, 2012

All times are specified in Local Standard Time (LST). Add 1 hour to adjust for Daylight Saving Time where and when it is observed.

MIRAMICHI RCS
NEW BRUNSWICK

47°00'34.000" N
65°27'54.000" W
33.00 m
8100989
71744
ACQ

Download Data

Hourly Data (March 2012)
Hourly Data Report for March 21, 2012
TIME Temp Definition
°C
Dew Point Temp Definition
°C
Rel Hum Definition
%
Wind Dir Definition
10's deg

Wind Spd Definition
km/h
Visibility Definition
km
Stn Press Definition
kPa
Hmdx Definition


Wind Chill Definition


Weather Definition


00:00 3.5 0.8 82 8 11   101.53     LegendNANA
01:00 4.5 1.8 83 6 9   101.60     LegendNANA
02:00 3.2 1.1 86 4 4   101.61     LegendNANA
03:00 2.0 0.2 88 7 7   101.61     LegendNANA
04:00 2.6 0.8 88 5 7   101.64     LegendNANA
05:00 2.5 0.8 89 3 6   101.68     LegendNANA
06:00 0.8 -0.8 89 5 4   101.70     LegendNANA
07:00 1.6 0.2 90   0   101.70     LegendNANA
08:00 4.8 1.4 79   0   101.71     LegendNANA
09:00 7.6 2.4 70 27 2   101.71     LegendNANA
10:00 10.2 4.0 65 25 13   101.62     LegendNANA
11:00 14.1 5.8 57 26 6   101.58     LegendNANA
12:00 18.6 7.5 48 25 6   101.48     LegendNANA
13:00 23.5 9.8 42 23 11   101.38 25   LegendNANA
14:00 25.0 11.1 42 23 20   101.27 27   LegendNANA
15:00 26.1 10.8 38 28 19   101.23 28   LegendNANA
16:00 25.8 9.9 37 27 20   101.21 27   LegendNANA
17:00 24.5 10.4 41 25 15   101.22 26   LegendNANA
18:00 22.8 10.2 45 26 17   101.21     LegendNANA
19:00 18.2 9.9 58 24 11   101.21     LegendNANA
20:00 19.0 10.3 57 24 13   101.22     LegendNANA
21:00 17.5 10.1 62 25 9   101.25     LegendNANA
22:00 16.2 9.7 65 24 9   101.22     LegendNANA
23:00 14.9 9.2 69 25 11   101.19     LegendNANA

Notes on Data Quality.

Legend

  • E = Estimated
  • M = Missing
  • NA = Not Available
Date modified: